Location: Baix
(44.7118°N, 4.7648°E)
Time: 17:49:20
(UTC+00:00)

Meteor 1-15 Rocket - Pass Details

Date: 07 August 2020
Orbit: 840 x 907 km, 81.2° (Epoch: 23 September)

Event Time Altitude Azimuth Distance (km) Brightness Sun altitude
Exits shadow 01:22:32 60° 163° (SSE) 982 4.2 -25.2°
Maximum altitude 01:23:33 76° 98° (E) 887 4.2 -25.1°
Drops below altitude 10° 01:29:10 10° 14° (NNE) 2,485 7.6 -24.7°
Sets 01:31:35 0° 13° (NNE) 3,418 8.6 -24.5°
